Location: Oshawa
(43.9000°N, 78.8670°W)
Time: 19:15:42
(UTC-04:00)

Cosmos 1805 Rocket - Visible Passes

Search period start: 25 June 2016 00:00
Search period end: 05 July 2016 00:00
Orbit: 607 x 630 km, 82.5° (Epoch: 25 June)

Date Brightness Start Highest point End Pass type
(mag) Time Alt. Az. Time Alt. Az. Time Alt. Az.
25 Jun 4.0 22:17:06 13° SSE 22:20:53 45° E 22:25:09 10° NNE visible
25 Jun 6.1 23:55:58 10° WSW 23:58:59 18° WNW 00:02:02 10° NNW visible
26 Jun 3.5 22:33:35 10° S 22:37:58 84° E 22:42:26 10° N visible
27 Jun 6.6 00:16:05 10° WNW 00:16:28 10° WNW 00:16:50 10° WNW visible
27 Jun 4.3 22:50:47 10° SSW 22:55:08 52° WNW 22:59:30 10° N visible
28 Jun 4.7 21:30:58 10° SE 21:34:39 26° E 21:38:20 10° NNE visible
28 Jun 5.4 23:08:30 10° SW 23:12:23 29° WNW 23:16:18 10° NNW visible
29 Jun 3.9 21:47:23 10° SSE 21:51:38 47° E 21:55:54 10° NNE visible
29 Jun 6.2 23:26:49 10° WSW 23:29:46 17° WNW 23:32:43 10° NNW visible
30 Jun 3.6 22:04:16 10° S 22:08:43 87° ESE 22:13:11 10° N visible
01 Jul 4.5 22:21:33 10° SSW 22:25:53 50° WNW 22:30:14 10° N visible
02 Jul 5.6 22:39:18 10° SW 22:43:09 28° WNW 22:47:00 10° NNW visible
03 Jul 6.3 22:57:40 10° WSW 23:00:32 17° WNW 23:03:23 10° NNW visible
04 Jul 3.6 21:35:02 10° S 21:39:28 90° NE 21:43:55 10° N visible
